Home > Weather > Santiago > Past weeks

Flag for Chile Past Weather in Santiago, Chile — Yesterday and Last 2 Weeks

Now
64 °F

Sunny.


Feels Like: 64 °F
Forecast: 49 / 68 °F
Wind: 1 mph from North

Location: Pudahuel

Current Time: Jul 27, 2016 at 1:24:55 PM

Latest Report: Jul 27, 2016 at 1:00 PM


Visibility: 10 mi

Pressure: 29.98 "Hg (28.02 "Hg at 576m altitude)

Humidity: 46%

Dew Point: 43 °F

Location of SantiagoLocation

Past Weather in Santiago — Graph

°F

Santiago Temperature Yesterday

Maximum temperature yesterday: 61 °F (at 4:00 PM)
Minimum temperature yesterday: 39 °F (at 12:00 AM)
Average temperature yesterday: 47 °F

High & Low Weather Summary for the Past Weeks

 TemperatureHumidityPressure
High72 °F (Jul 21, 3:00 PM)100% (Jul 15, 9:00 AM)30.33 "Hg (Jul 15, 9:00 AM)
Low34 °F (Jul 15, 6:00 AM)30% (Jul 18, 4:00 PM)29.80 "Hg (Jul 13, 8:00 AM)
Average49 °F77%30.08 "Hg
* Reported Jul 12 12:00 PM — Jul 27 12:00 PM, Santiago, Weather by CustomWeather, © 2016

Note: Actual official high and low records may vary slightly from our data, if they occured in-between our weather recording intervals... More about our weather records

Advertising

Santiago Weather History for the Previous 24 Hours

Scroll right to see more
 ConditionsComfort  
Time TempWeatherWind HumidityBarometerVisibility
12:00 PM
Wed, Jul 27
61 °FPassing clouds.2 mph55%29.98 "Hg5 mi
11:00 AM55 °FScattered clouds.3 mph72%30.01 "Hg4 mi
10:00 AM50 °FPartly sunny.7 mph76%30.01 "Hg3 mi
9:00 AM46 °FPartly sunny.5 mph87%30.01 "Hg3 mi
8:00 AM46 °FPartly sunny.3 mph87%30.01 "Hg3 mi
7:00 AM48 °FPartly sunny.5 mph82%29.98 "Hg4 mi
6:00 AM46 °FPartly cloudy.7 mph87%29.95 "Hg4 mi
5:00 AM46 °FPassing clouds.6 mph87%29.95 "Hg5 mi
4:00 AM46 °FPassing clouds.1 mph87%29.95 "Hg5 mi
3:00 AM48 °FPassing clouds.3 mph82%29.98 "Hg5 mi
2:00 AM46 °FPassing clouds.2 mph87%29.98 "Hg5 mi
1:00 AM48 °FPassing clouds.3 mph82%29.95 "Hg5 mi
12:00 AM48 °FPassing clouds.No wind82%29.95 "Hg5 mi
11:00 PM
Tue, Jul 26
48 °FPassing clouds.2 mph82%29.98 "Hg5 mi
10:00 PM52 °FPassing clouds.2 mph72%29.98 "HgN/A
9:00 PM50 °FPassing clouds.2 mph76%29.98 "HgN/A
8:00 PM52 °FPartly cloudy.No wind72%30.01 "HgN/A
7:00 PM54 °FPassing clouds.2 mph67%30.01 "HgN/A
6:00 PM57 °FClear.3 mph55%30.04 "Hg10 mi
5:00 PM59 °FSunny.3 mph48%30.04 "Hg10 mi
4:00 PM61 °FPassing clouds.3 mph42%30.04 "HgN/A
3:00 PM59 °FSunny.2 mph45%30.07 "Hg10 mi
2:00 PM54 °FClear.2 mph67%30.07 "Hg4 mi
1:00 PM48 °FScattered clouds.3 mph82%30.09 "Hg3 mi
Weather by CustomWeather, © 2016

See weather overviewHow to use our weather pages